Volver al catálogo

STARLINK-34203

ActivoComunicacionesVLEO
NORAD 64246·PAYLOAD·🇺🇸 United States

Lanzado Jun 3, 2025 desde Cape Canaveral Space Force Station

Loading…

Próximos Pases (próximas 24 horas)

TLE

ActualizadoSource: CelesTrak SupGP

Época: Sep 14, 2026, 21:41 UTC

1 64246C 25119P   26257.90395833 -.00022242  00000+0 -80577-3 0  2572
2 64246  43.0016 318.3828 0001567 265.5895 259.3576 15.27582123    14

Sigue STARLINK-34203 en tiempo real con AllMySat

Download on the App Store